Find Starlink 2329

NORAD ID: 47873 Int'l Des: 2021-021 Owner: SPXS Country: US Constellation: starlink operational
LEOCIRCULAR

Live Position

Loading 3D Globe...

About Starlink 2329

Description loading...

Upcoming Passes

Passes for default location (London). Set your location on the main map for personalized predictions.

Altitude History

Loading altitude history...

Two-Line Element Set

1 47873U 21021P 26123.69262905 .00001184 00000-0 49905-4 0 9993
2 47873 53.1608 359.7024 0001331 96.4729 263.6424 15.31704523284843
Epoch: May 3, 2026 • Age: 10 hours

Current Status

Altitude 474.6 km
Velocity 7.63 km/s
Sub-Earth Point 45.14°N, 130.67°W
Launch Date Mar 14, 2021
Age 5.1 years
Type internet

Technical Details

Classification Payload
Mass 260.00 kg
Dry Mass 248.00 kg
Total Mass 260.00 kg
Length 0.20 m
Diameter 2.80 m
Span 9.00 m
Shape Box + pan
Manufacturer SPXS
Bus Type Starlink
Phase Status In Orbit
Owner/State SPXS/US

Most Searched